TimeCST,TemperatureF,Dew PointF,Humidity,Sea Level PressureIn,VisibilityMPH,Wind Direction,Wind SpeedMPH,Gust SpeedMPH,PrecipitationIn,Events,Conditions,WindDirDegrees,DateUTC
12:12 AM,26.6,17.6,69,30.49,10.0,NNW,9.2,19.6,N/A,,Overcast,340,2013-11-22 06:12:00
12:31 AM,24.8,17.6,74,30.51,10.0,NNW,13.8,18.4,N/A,,Overcast,340,2013-11-22 06:31:00
12:52 AM,24.8,15.8,69,30.51,10.0,NNW,8.1,17.3,N/A,,Overcast,340,2013-11-22 06:52:00
1:12 AM,24.8,15.8,69,30.50,10.0,NNW,8.1,-,N/A,,Overcast,330,2013-11-22 07:12:00
1:31 AM,24.8,15.8,69,30.51,10.0,NNW,10.4,-,N/A,,Overcast,330,2013-11-22 07:31:00
1:52 AM,23.0,15.8,74,30.52,10.0,NW,10.4,-,N/A,,Mostly Cloudy,320,2013-11-22 07:52:00
2:12 AM,23.0,14.0,68,30.53,10.0,NNW,8.1,-,N/A,,Mostly Cloudy,340,2013-11-22 08:12:00
2:31 AM,23.0,14.0,68,30.53,10.0,NNW,6.9,-,N/A,,Overcast,330,2013-11-22 08:31:00
2:52 AM,23.0,14.0,68,30.53,10.0,NNW,10.4,-,N/A,,Scattered Clouds,330,2013-11-22 08:52:00
3:11 AM,23.0,14.0,68,30.52,10.0,NNW,8.1,-,N/A,,Clear,340,2013-11-22 09:11:00
3:32 AM,23.0,14.0,68,30.52,10.0,NNW,9.2,-,N/A,,Clear,340,2013-11-22 09:32:00
3:52 AM,23.0,14.0,68,30.52,10.0,NNW,6.9,-,N/A,,Clear,330,2013-11-22 09:52:00
4:11 AM,21.2,14.0,74,30.52,10.0,NW,3.5,-,N/A,,Clear,320,2013-11-22 10:11:00
4:32 AM,21.2,14.0,74,30.52,10.0,NNW,5.8,-,N/A,,Clear,330,2013-11-22 10:32:00
4:52 AM,21.2,14.0,74,30.53,10.0,NNW,8.1,-,N/A,,Clear,330,2013-11-22 10:52:00
5:11 AM,21.2,14.0,74,30.54,10.0,NNW,6.9,-,N/A,,Clear,330,2013-11-22 11:11:00
5:32 AM,19.4,14.0,80,30.54,10.0,NNW,6.9,-,N/A,,Clear,330,2013-11-22 11:32:00
5:51 AM,19.4,14.0,80,30.55,10.0,NW,5.8,-,N/A,,Clear,320,2013-11-22 11:51:00
6:12 AM,19.4,14.0,80,30.54,10.0,NNW,4.6,-,N/A,,Clear,330,2013-11-22 12:12:00
6:32 AM,17.6,14.0,86,30.55,10.0,NNW,3.5,-,N/A,,Clear,330,2013-11-22 12:32:00
6:52 AM,17.6,14.0,86,30.55,10.0,WNW,3.5,-,N/A,,Clear,300,2013-11-22 12:52:00
7:12 AM,15.8,12.2,86,30.56,10.0,WNW,5.8,-,N/A,,Clear,290,2013-11-22 13:12:00
7:31 AM,15.8,12.2,86,30.56,10.0,WNW,4.6,-,N/A,,Clear,300,2013-11-22 13:31:00
7:52 AM,17.6,12.2,79,30.54,10.0,Calm,Calm,-,N/A,,Clear,0,2013-11-22 13:52:00
8:11 AM,17.6,14.0,86,30.56,10.0,West,3.5,-,N/A,,Clear,280,2013-11-22 14:11:00
8:32 AM,19.4,14.0,80,30.57,10.0,WNW,8.1,-,N/A,,Clear,290,2013-11-22 14:32:00
8:51 AM,19.4,14.0,80,30.57,10.0,WNW,8.1,-,N/A,,Clear,300,2013-11-22 14:51:00
9:12 AM,21.2,14.0,74,30.56,10.0,West,4.6,-,N/A,,Clear,280,2013-11-22 15:12:00
9:31 AM,21.2,14.0,74,30.56,10.0,WNW,3.5,-,N/A,,Clear,300,2013-11-22 15:31:00
9:52 AM,23.0,15.8,74,30.56,10.0,WSW,4.6,-,N/A,,Clear,250,2013-11-22 15:52:00
10:12 AM,23.0,14.0,68,30.56,10.0,WSW,6.9,-,N/A,,Clear,240,2013-11-22 16:12:00
10:32 AM,24.8,15.8,69,30.55,10.0,SW,5.8,-,N/A,,Clear,230,2013-11-22 16:32:00
10:51 AM,26.6,12.2,55,30.54,10.0,SW,5.8,-,N/A,,Clear,230,2013-11-22 16:51:00
11:11 AM,26.6,14.0,59,30.54,10.0,SW,5.8,-,N/A,,Clear,220,2013-11-22 17:11:00
11:32 AM,28.4,14.0,55,30.52,10.0,SW,9.2,-,N/A,,Clear,220,2013-11-22 17:32:00
11:51 AM,28.4,14.0,55,30.51,10.0,SW,10.4,-,N/A,,Clear,220,2013-11-22 17:51:00
12:12 PM,30.2,14.0,51,30.51,10.0,WSW,12.7,-,N/A,,Clear,240,2013-11-22 18:12:00
12:31 PM,30.2,12.2,47,30.51,10.0,SW,12.7,-,N/A,,Clear,220,2013-11-22 18:31:00
12:52 PM,30.2,10.4,44,30.50,10.0,SW,13.8,18.4,N/A,,Clear,230,2013-11-22 18:52:00
1:12 PM,32.0,8.6,38,30.49,10.0,SW,15.0,19.6,N/A,,Clear,230,2013-11-22 19:12:00
1:31 PM,32.0,8.6,38,30.48,10.0,SW,12.7,-,N/A,,Clear,230,2013-11-22 19:31:00
1:52 PM,32.0,8.6,38,30.46,10.0,SW,11.5,-,N/A,,Clear,220,2013-11-22 19:52:00
2:11 PM,32.0,8.6,38,30.45,10.0,SW,11.5,-,N/A,,Clear,230,2013-11-22 20:11:00
2:32 PM,32.0,8.6,38,30.44,10.0,SW,9.2,-,N/A,,Clear,230,2013-11-22 20:32:00
2:51 PM,32.0,8.6,38,30.45,10.0,WSW,12.7,17.3,N/A,,Clear,240,2013-11-22 20:51:00
3:12 PM,32.0,8.6,38,30.45,10.0,WSW,11.5,-,N/A,,Clear,240,2013-11-22 21:12:00
3:32 PM,32.0,10.4,41,30.45,10.0,SW,9.2,-,N/A,,Clear,230,2013-11-22 21:32:00
3:51 PM,32.0,8.6,38,30.45,10.0,WSW,8.1,-,N/A,,Clear,250,2013-11-22 21:51:00
4:12 PM,32.0,10.4,41,30.45,10.0,WSW,9.2,-,N/A,,Clear,240,2013-11-22 22:12:00
4:31 PM,30.2,10.4,44,30.44,10.0,WSW,6.9,-,N/A,,Clear,240,2013-11-22 22:31:00
4:52 PM,30.2,10.4,44,30.44,10.0,WSW,4.6,-,N/A,,Clear,240,2013-11-22 22:52:00
5:11 PM,28.4,10.4,47,30.44,10.0,WNW,6.9,-,N/A,,Clear,290,2013-11-22 23:11:00
5:32 PM,30.2,10.4,44,30.45,10.0,WNW,9.2,-,N/A,,Clear,300,2013-11-22 23:32:00
5:51 PM,30.2,10.4,44,30.45,10.0,WNW,12.7,18.4,N/A,,Clear,300,2013-11-22 23:51:00
6:12 PM,28.4,12.2,51,30.46,10.0,NNW,12.7,17.3,N/A,,Mostly Cloudy,330,2013-11-23 00:12:00
6:31 PM,28.4,12.2,51,30.46,10.0,NW,11.5,21.9,N/A,,Overcast,320,2013-11-23 00:31:00
6:51 PM,28.4,12.2,51,30.47,10.0,NNW,12.7,24.2,N/A,,Overcast,330,2013-11-23 00:51:00
7:12 PM,26.6,17.6,69,30.48,10.0,NW,12.7,23.0,N/A,,Overcast,310,2013-11-23 01:12:00
7:31 PM,26.6,14.0,59,30.48,10.0,NW,11.5,-,N/A,,Overcast,320,2013-11-23 01:31:00
7:52 PM,26.6,17.6,69,30.49,10.0,NNW,16.1,24.2,N/A,,Overcast,330,2013-11-23 01:52:00
8:11 PM,24.8,15.8,69,30.51,10.0,NW,16.1,24.2,N/A,,Overcast,310,2013-11-23 02:11:00
8:32 PM,23.0,14.0,68,30.51,10.0,NW,10.4,18.4,N/A,,Overcast,310,2013-11-23 02:32:00
8:51 PM,23.0,14.0,68,30.52,10.0,NW,18.4,24.2,N/A,,Overcast,320,2013-11-23 02:51:00
9:12 PM,21.2,10.4,63,30.53,10.0,NNW,15.0,23.0,N/A,,Scattered Clouds,330,2013-11-23 03:12:00
9:32 PM,21.2,10.4,63,30.54,10.0,NNW,12.7,18.4,N/A,,Mostly Cloudy,330,2013-11-23 03:32:00
9:51 PM,21.2,10.4,63,30.54,10.0,NW,13.8,23.0,N/A,,Mostly Cloudy,320,2013-11-23 03:51:00
10:12 PM,19.4,10.4,68,30.56,10.0,NNW,12.7,20.7,N/A,,Overcast,330,2013-11-23 04:12:00
10:31 PM,17.6,8.6,68,30.56,10.0,NW,16.1,21.9,N/A,,Scattered Clouds,320,2013-11-23 04:31:00
10:52 PM,17.6,6.8,63,30.57,10.0,NW,18.4,24.2,N/A,,Clear,320,2013-11-23 04:52:00
11:11 PM,15.8,5.0,62,30.58,10.0,NW,10.4,21.9,N/A,,Clear,320,2013-11-23 05:11:00
11:31 PM,15.8,6.8,68,30.59,10.0,NW,12.7,18.4,N/A,,Mostly Cloudy,320,2013-11-23 05:31:00
11:52 PM,15.8,6.8,68,30.60,10.0,NNW,12.7,18.4,N/A,,Overcast,330,2013-11-23 05:52:00